Kennebunk, ME (04043)

8:04 PM EDT on April 26, 2017 (GMT -0400)
Kennebunk | | Change Station
Active Advisory: Coastal Flood Advisory Active Notice: Coastal Flood Advisory

Elev 65 ft 43.39 °N, 70.54 °W | Updated 7 minutes ago

Overcast
Overcast
52.5 °F
Feels Like 52.5 °F
N
0.6
Wind Variable Wind from East
Gusts 1.9 mph

Today
High -- | Low -- °F
--% Chance of Precip.
Yesterday
High -- | Low -- °F
Precip. -- in
Pressure 29.92 in
Visibility 1.8 miles
Clouds Overcast 400 ft
Dew Point 51 °F
Humidity 95%
Rainfall 0.08 in
Snow Depth Not available.
5:42 AM 7:38 PM
New Moon, 0% visible
METAR KSFM 262356Z AUTO 06008KT 1 3/4SM -RA BR OVC004 12/11 A2988 RMK AO2 RAB05 SLP132 P0001 60011 T01170111 10128 20117 50002
Pressure 29.92 in
Visibility 1.8 miles
Clouds Overcast 400 ft
Dew Point 51 °F
Humidity 95%
Rainfall 0.08 in
Snow Depth Not available.
5:42 AM 7:38 PM
New Moon, 0% visible
METAR KSFM 262356Z AUTO 06008KT 1 3/4SM -RA BR OVC004 12/11 A2988 RMK AO2 RAB05 SLP132 P0001 60011 T01170111 10128 20117 50002

Get Your Daily Forecast Email!

Thanks for signing up!

Be on the lookout for a verification email in your inbox.

You'll start receiving severe weather alerts in your inbox..

×

10-Day Weather Forecast

Almanac

Astronomy

Apr. 26, 2017 Rise Set
Actual Time
Civil Twilight
Nautical Twilight
Astronomical Twilight
Moon
Length of Visible Light
Length of Day
Tomorrow will be .
, % of the Moon is Illuminated

Today's Extremes

State Highs State Lows

Community

WunderPhotos

WunderBlog® & News

Nearby

Air Quality

  Air Quality AQ Index Pollutant
Not available.

Snow Depth

Station Depth Elevation

Earthquake Activity

City Distance Mag. Time & Date
Minimum magnitude displayed is 2.5.

Coastal Water Temperatures

Place Temperature

Stations

Nearby Weather Stations

Station Location Temp. Windchill Dew Point Humidity Wind Precip. Elev Updated Type
                   

Watches & Warnings

Coastal Flood Advisory
Issued: 3:15 PM EDT Apr. 26, 2017 – National Weather Service

... Coastal flood advisory remains in effect from 10 PM this
evening to 2 am EDT Thursday...

* location... the New Hampshire seacoast and the beaches of
southwest Maine to the south of Portland.

* Coastal flooding... the combination of high astronomical tides
and an onshore wind will create a threat for splash over and
beach erosion near the time of high tide tonight.

* Timing... near the time of high tide tonight.

* Impacts... the potential exists for splash over and minor beach
erosion.

Precautionary/preparedness actions...

A coastal flood advisory indicates that onshore winds and tides
will combine to generate flooding of low areas along the shore.